Location: Cucq
(50.4773°N, 1.6202°E)
Time: 21:02:33
(UTC+00:00)

Cosmos 783 Rocket - Pass Details

Date: 07 August 2020
Orbit: 757 x 781 km, 74.1° (Epoch: 21 September)

Event Time Altitude Azimuth Distance (km) Brightness Sun altitude
Rises 00:46:52 0° 334° (NNW) 3,237 8.5 -22.4°
Reaches altitude 10° 00:49:15 10° 332° (NNW) 2,310 7.6 -22.3°
Maximum altitude 00:54:27 68° 250° (WSW) 828 4.5 -22.1°
Enters shadow 00:55:31 53° 194° (SSW) 939 4.5 -22.1°
